Location: Tel Aviv
(32.0670°N, 34.7670°E)
Time: 11:27:06
(UTC+03:00)

Transit 2A - Pass Details

Date: 01 February 2022
Orbit: 598 x 960 km, 66.7° (Epoch: 20 May)

Event Time Altitude Azimuth Distance (km) Brightness Sun altitude
Rises 19:47:18 0° 318° (NW) 3,458 9.9 -32.5°
Reaches altitude 10° 19:50:25 10° 303° (WNW) 2,452 9.2 -33.2°
Maximum altitude 19:54:33 21° 256° (WSW) 1,701 8.3 -34.1°
Drops below altitude 10° 19:58:24 10° 208° (SSW) 2,257 8.7 -34.9°
Enters shadow 19:59:42 - 199° (SSW) 2,639 9.0 -35.2°
Sets 20:01:09 0° 192° (SSW) 3,108 - -35.5°
